Location: ????????
(54.8751°N, 38.5756°E)
Time: 14:49:02
(UTC+00:00)

Cosmos 1624 Rocket - Pass Details

Date: 14 April 2024
Orbit: 755 x 781 km, 74.0° (Epoch: 18 May)

Event Time Altitude Azimuth Distance (km) Brightness Sun altitude
Rises 00:43:46 0° 332° (NNW) 3,255 7.4 -13.5°
Reaches altitude 10° 00:46:10 10° 333° (NNW) 2,320 6.6 -13.2°
Maximum altitude 00:51:27 87° 61° (ENE) 773 4.0 -12.6°
Drops below altitude 10° 00:56:39 10° 153° (SSE) 2,289 6.4 -12.0°
Sets 00:59:00 0° 154° (SSE) 3,207 7.1 -11.8°
